OBJECT M, 51835

Orbit data source: Space-Track

You're viewing an Uncataloged Satellite

Recently launched and/or uncataloged satellites may have evolving metadata. Metadata may include but not limited to: Owner, Maufacturer, Bus, Motor, and Mission.

OBJECT M, 51835 is a satellite owned by Changguang WJ (CN) in SSO that was launched on Sun, 27 Feb 2022 UTC via a CHANG ZHENG 8 launch vehicle from the Wenchang Satellite Launch Center (WSC). Unknown objects in Earth's orbit typically refer to objects detected orbiting the Earth but have not yet been identified or cataloged. These objects could be anything from previously untracked satellites, spent rocket stages, debris from satellite collisions, or even natural meteoroids temporarily captured by Earth's gravity.

Loading next visibility...
OBJECT M details
Identifier
51835, 2022-019M
Orbit
SSO
Last TLE update9 hours ago
Origin
Flag of CNChangguang WJ (CN / PRC)
ManufacturerChangguang WJ
MissionOperational Commercial Imaging
Bus & MotorJL-1, Unknown motor
Mass43 kg wet, 43 kg dry
Launch date (UTC)
2022-02-27 (3 years ago)
Launch vehicle
CHANG ZHENG 8
Launch site
Wenchang Satellite Launch Center (WSC)
Object typeUnknown
Shape & HBRBox + 2 Pan, 1.5 m
Radar Cross Section2.000 m², Medium (>0.1 m² and < 1m²)

Expand to show TLE details & history

TLE from 9 hours ago
0 OBJECT M
1 51835U 22019M   25014.92094360  .00023561  00000-0  76916-3 0  9990
2 51835  97.4151  93.9632 0006713 194.4294 165.6756 15.31747279159707
Epoch: 2025-01-14T22:06Z
Definitive object data (Epoch: 2025-01-14T22:06:09.527Z)
Latitude-0.00008°
Longitude7.8028°
Altitude478.161 km
Speed7.624 km/s
True Right ascension06h 15m 51s
True Declination0° 00' 00"
Sunlit
Object was in full shadow at TLE epoch
Visualization TLE readout
Latitude11.41378°
Longitude-170.34254°
Altitude468.712 km
Speed7.635 km/s
Apparent Right ascension18h 47m 09s
Apparent Declination-13° 17' 58"
Sunlit
Object is in daylight
Visualization observer readout
Local Sidereal Time07:19:55
Azimuth17.434° NNE
Elevation-62.425°
Doppler factor1
Orbital elements
Apogee altitude472.145 km
Perigee altitude462.954 km
Semi-major axis6,845.687 km
Eccentricity0.0006713
Inclination97.4151°
RAAN93.9632°
Arg. of periapsis194.4294°
True anomaly165.69462°
Mean anomaly165.6756°
Eccentric anomaly165.68511°
Mean motion3.83193 °/min
BSTAR0.00076916
Orbital period93.95 mins
Loading maneuver chart data...
Loading historical data...
Loading historical data...
Loading historical data...
Loading historical data...
Loading historical data...
Loading historical data...
Loading historical data...

OBJECT M Visibility forecast

Observer location: undefined°, undefined

Span
Click to sort rows by Start time (UTC) header in descending order
Start Az.
Max El. time (UTC)
Max El. Az.
Max El.
End time (UTC)
End Az.
5 mins2025-01-15 17:29:30.391Z41.307° NE2025-01-15 17:31:30.391Z88.307° E27.314°2025-01-15 17:34:30.391Z159.141° S
4 mins2025-01-16 05:36:30.391Z213.97° SW2025-01-16 05:37:30.391Z246.573° WSW31.415°2025-01-16 05:40:30.391Z327.466° NNW
|